Olympia, WA

5:08 AM PDT on August 20, 2017 (GMT -0700)
Olympia

Weather History for KOLM - September, 2013

Change the Weather History Date:

Monday, September 23, 2013

  Actual Average Record
Temperature  
Mean Temperature 54 °F 57 °F  
Max Temperature 60 °F 70 °F 91 °F (1957)
Min Temperature 48 °F 45 °F 26 °F (2000)
Degree Days  
Heating Degree Days 11 8  
Month to date heating degree days 59 126  
Since 1 July heating degree days 136 276  
Cooling Degree Days 0 0  
Month to date cooling degree days 26 4  
Year to date cooling degree days 147 103  
Growing Degree Days 6 (Base 50)    
Moisture  
Dew Point 52 °F    
Average Humidity 90    
Maximum Humidity 100    
Minimum Humidity 80    
Precipitation  
Precipitation 0.25 in 0.06 in 1.16 in (1978)
Month to date precipitation 3.72 1.21  
Year to date precipitation 26.98 28.81  
Sea Level Pressure  
Sea Level Pressure 29.91 in    
Wind  
Wind Speed 8 mph (SSW)    
Max Wind Speed 16 mph    
Max Gust Speed 21 mph    
Visibility 9 miles    
Events Rain    
T = Trace of Precipitation, MM = Missing Value Source: NWS Daily Summary

Daily Weather History Graph

Daily Weather History Graph

Search for Another Location

Airport or City:

Trip Planner

Search our weather history database for the weather conditions in past years. The results will help you decide how hot, cold, wet, or windy it might be!

Date:

Astronomy

Sep. 23, 2013 Rise Set
Actual Time 7:00 AM PDT 7:06 PM PDT
Civil Twilight 6:29 AM PDT 7:36 PM PDT
Nautical Twilight 5:54 AM PDT 8:12 PM PDT
Astronomical Twilight 5:17 AM PDT 8:48 PM PDT
Moon 9:24 PM PDT (9/23) 11:42 AM PDT (9/23)
Length of Visible Light 13h 07m
Length of Day
12h 06m
Waning Gibbous, 80% of the Moon is Illuminated
Sep 23
Waning Gibbous
Sep 26
Last Quarter
Oct 4
New
Oct 11
First Quarter
Oct 18
Full

Hourly Weather History & Observations

Time (PDT) Temp. Dew Point Humidity Pressure Visibility Wind Dir Wind Speed Gust Speed Precip Events Conditions
12:24 AM 54.0 °F 52.0 °F 93% 29.79 in 7.0 mi SW 9.2 mph - 0.00 in Rain Light Rain
12:54 AM 54.0 °F 52.0 °F 93% 29.80 in 10.0 mi SSW 9.2 mph - 0.00 in Rain Light Rain
1:54 AM 54.0 °F 52.0 °F 93% 29.81 in 10.0 mi SSW 9.2 mph - 0.01 in   Mostly Cloudy
2:54 AM 54.0 °F 52.0 °F 93% 29.83 in 10.0 mi WSW 5.8 mph - 0.00 in   Overcast
3:54 AM 54.0 °F 52.0 °F 93% 29.83 in 10.0 mi SSW 10.4 mph - 0.04 in   Overcast
4:54 AM 54.0 °F 52.0 °F 93% 29.84 in 10.0 mi SSW 9.2 mph - N/A   Overcast
5:54 AM 53.1 °F 51.1 °F 93% 29.84 in 10.0 mi SSW 6.9 mph - N/A   Scattered Clouds
6:54 AM 54.0 °F 51.1 °F 90% 29.85 in 10.0 mi SSW 10.4 mph - N/A   Overcast
7:54 AM 54.0 °F 52.0 °F 93% 29.87 in 10.0 mi SSW 9.2 mph - N/A   Scattered Clouds
8:54 AM 55.9 °F 52.0 °F 87% 29.87 in 10.0 mi SSW 10.4 mph - N/A   Mostly Cloudy
9:54 AM 59.0 °F 54.0 °F 83% 29.89 in 10.0 mi SSW 10.4 mph - 0.00 in   Overcast
10:54 AM 55.9 °F 53.1 °F 90% 29.92 in 4.0 mi South 6.9 mph - 0.13 in Rain Heavy Rain
11:54 AM 57.0 °F 54.0 °F 89% 29.92 in 7.0 mi SSW 5.8 mph - 0.03 in Rain Light Rain
12:54 PM 57.9 °F 55.0 °F 90% 29.93 in 10.0 mi SW 6.9 mph - 0.00 in   Overcast
1:54 PM 57.0 °F 54.0 °F 89% 29.94 in 7.0 mi SSW 10.4 mph - 0.01 in Rain Light Rain
2:54 PM 59.0 °F 55.0 °F 87% 29.94 in 10.0 mi South 10.4 mph - 0.00 in   Overcast
3:54 PM 59.0 °F 53.1 °F 81% 29.94 in 10.0 mi South 16.1 mph - 0.00 in   Mostly Cloudy
4:54 PM 57.0 °F 53.1 °F 87% 29.95 in 7.0 mi SSW 9.2 mph - 0.03 in Rain Light Rain
5:54 PM 55.9 °F 52.0 °F 87% 29.96 in 10.0 mi SW 6.9 mph - 0.00 in Rain Light Rain
6:54 PM 55.0 °F 52.0 °F 89% 29.96 in 10.0 mi SW 4.6 mph - 0.00 in   Mostly Cloudy
7:54 PM 55.0 °F 52.0 °F 89% 29.97 in 10.0 mi Calm Calm - N/A   Overcast
8:54 PM 52.0 °F 51.1 °F 97% 29.98 in 10.0 mi SSW 5.8 mph - N/A   Mostly Cloudy
9:54 PM 53.1 °F 51.1 °F 93% 29.99 in 10.0 mi SW 6.9 mph - N/A   Clear
10:54 PM 51.1 °F 48.9 °F 92% 29.99 in 10.0 mi SSW 8.1 mph - N/A   Scattered Clouds
11:54 PM 48.9 °F 48.0 °F 97% 29.98 in 10.0 mi SW 4.6 mph - N/A   Clear